User: anonymous   Login
Location: Unspecified
(0.0000°N, 0.0000°E)
Time: 00:04:57
(UTC+00:00)
Language:

HAIYANG 2A - Orbit

View from above orbital plane
View from above orbital plane
View from above satellite
View from above satellite

Ground track
Ground track

The orbit data is extracted from the following two-line orbital elements,

1 37781U 11043A   18112.37316345 -.00000044  00000-0 -11427-6 0  9991
2 37781  99.3260 123.4606 0000208  87.6413 272.4765 13.78716386336586
Epoch (UTC): 22 April 2018 08:57:21
Eccentricity: 0.0000208
inclination: 99.3260°
perigee height: 968 km
apogee height: 968 km
right ascension of ascending node: 123.4606°
argument of perigee: 87.6413°
revolutions per day: 13.78716386
mean anomaly at epoch: 272.4765°
orbit number at epoch: 33658

The dashed part of the orbit path shows where the satellite is in the earth's shadow,  

DLR